GONETS M 12 (M22)

Satellite information

Favourite Embed

Satellite Type and Status

PAYLOADIN ORBIT

Key statistics

Satellite GONETS M 12 (M22) at a glance.

Uptime

3866

Days in orbit

Revolutions

≈ 12.4

Per day

Orbit

LEO

Low Earth Orbit

Inclination

82.5

Latest

Satellite identification and parameters

Extended collection of information and parameters for GONETS M 12 (M22).

Object identification

Identified? True

Debris? False

Object name: GONETS M 12 (M22)

International designator: 2015-020B

Object number (NORAD): 40553

Object ID (CCSDS): 40553

Country: COMMONWEALTH OF INDEPENDENT STATES (CIS)

Current information (Y/N): Y

RCS size: LARGE

Orbital parameters

Period: 115.862 minutes

Inclination: 82.4912 deg

SMA: 7872.631 km

Apoapsis: 1506.422 km

Periapsis: 1482.569 km

RAAN: 175.5211 deg

Eccentricy: 0.00151494

Argument of periapsis: 126.3847 deg

Mean anomaly: 233.8633 deg

Mean motion: 12.42862108 rev/day

Mean motion (dot): 0.00000035 rev/day2

B* drag term: 0.00017967659 1/REarth

Two-line elements (TLE)

Creation date: Oct. 30, 2025, 3:32 a.m.

Reference frame: TEME

Reference center: EARTH

Epoch: Oct. 29, 2025, 10:06 p.m. UTC

TLE line 0: 0 GONETS M 12 (M22)

TLE line 1: 1 40553U 15020B 25302.92127635 .00000035 00000-0 17968-3 0 9994

TLE line 2: 2 40553 82.4912 175.5211 0015149 126.3847 233.8633 12.42862108480125

Live tracking on map

Real-time ground track for satellite GONETS M 12 (M22).

In-orbit conjunctions

There are no conjunctions computed for GONETS M 12 (M22), at the moment. Check back to stay up to date, as we update our databases every day.

Go to all conjunctions

Associated space launch

Gonets-M are an upgraded version of Gonets satellites, derived from military communications system Strela-3. Gonets-M constellation is tasked with monitoring ecological and industrial objects, providing communication and data transmission services, covering also the remote areas like the Far North region.

GONETS M 12 (M22) was lifted into orbit during the mission ‘Rokot / Briz-KM | Gonets M-21, Gonets M-22, Gonets M-23, Kosmos 2504’, on board a Rokot/Briz-KM space rocket.

The launch took place on March 31, 2015, 1:47 p.m. from 133/3 (133L).

For more information about the launch, click the button.

Launch to space Rokot / Briz-KM | Gonets M-21, Gonets M-22, Gonets M-23, Kosmos 2504
Rokot / Briz-KM | Gonets M-21, Gonets M-22, Gonets M-23, Kosmos 2504

Agency: N/A

Status: Launch Successful

Launch date: March 31, 2015, 1:47 p.m. UTC

Rocket: Rokot/Briz-KM

Launch pad: 133/3 (133L)

Location: Plesetsk Cosmodrome, Russian Federation

...

Latest news about this satellite

There are no fresh news available about this satellite. Check back as we update our databases every day.


Newsletter sign-up

Weekly statistics, charts and insights to help you stay on top of the space industry.